EW2131 Weather Reports


time (UTC)temp
C
wind
direction
speed
KPH
gust
KPH
rain 1hr
cm
rain 24hr
cm
rain mn
cm
humidity
%
barometer
mb
20210801203519 21 330 9.7 16.1 0.00 1.17 0.00 40 1037.5
20210801202521 21 346 3.2 6.4 0.00 1.22 0.00 40 1037.5
20210801201521 20 358 6.4 12.9 0.00 1.27 0.00 43 1037.7
20210801200520 20 5 4.8 11.3 0.00 1.35 0.00 42 1037.9
20210801195522 20 21 9.7 17.7 0.00 1.45 0.00 44 1037.9
20210801194522 19 30 0.0 6.4 0.00 1.63 0.00 42 1038.1
20210801193520 19 30 4.8 9.7 0.00 1.73 0.00 42 1038.3
20210801192520 19 38 1.6 6.4 0.00 1.85 0.00 43 1038.3
20210801191619 19 14 11.3 14.5 0.00 1.93 0.00 43 1038.6
20210801190621 19 338 1.6 8.0 0.00 2.03 0.00 43 1038.5
20210801185620 19 360 1.6 6.4 0.00 2.24 0.00 43 1038.8
20210801184620 19 36 4.8 9.7 0.00 2.36 0.00 43 1039.2
20210801183622 18 18 3.2 9.7 0.00 2.39 0.00 48 1039.0
20210801182619 17 1 4.8 9.7 0.00 2.44 0.00 50 1039.3
20210801181622 16 358 4.8 6.4 0.00 2.44 0.00 51 1039.4
20210801180719 16 1 3.2 6.4 0.00 2.44 0.00 55 1039.5
20210801175720 16 358 1.6 6.4 0.00 2.44 0.00 54 1039.4
20210801174820 16 348 3.2 8.0 0.00 2.44 0.00 51 1039.6
20210801173820 17 356 3.2 8.0 0.00 2.44 0.00 51 1039.6
20210801172919 17 337 4.8 9.7 0.00 2.44 0.00 49 1039.8
20210801171921 17 17 3.2 12.9 0.00 2.44 0.00 52 1039.8
20210801170921 16 355 0.0 1.6 0.00 2.44 0.00 54 1039.8
20210801165921 15 42 1.6 6.4 0.00 2.44 0.00 57 1039.8
20210801164920 15 7 0.0 1.6 0.00 2.44 0.00 60 1039.8
20210801164020 15 6 3.2 9.7 0.00 2.44 0.00 61 1039.7
20210801163020 15 112 1.6 3.2 0.00 2.44 0.00 62 1039.7
20210801162019 14 22 0.0 0.0 0.00 2.44 0.00 66 1039.9
20210801161923 14 22 0.0 1.6 0.00 2.44 0.00 67 1039.9
20210801160919 13 21 3.2 4.8 0.00 2.44 0.00 72 1039.8
20210801160019 13 202 0.0 1.6 0.00 2.44 0.00 77 1039.9
20210801155021 12 202 0.0 1.6 0.00 2.44 0.00 81 1039.8
20210801154022 12 202 0.0 0.0 0.00 2.44 0.00 86 1039.9
20210801153021 12 202 0.0 0.0 0.00 2.44 0.00 89 1040.0
20210801152021 11 202 0.0 0.0 0.00 2.44 0.00 92 1040.0
20210801151020 11 202 0.0 0.0 0.00 2.44 0.00 94 1039.9
20210801150120 11 202 0.0 0.0 0.00 2.44 0.00 94 1039.9
20210801145219 10 202 0.0 0.0 0.00 2.44 0.00 93 1040.0
20210801144219 10 202 0.0 0.0 0.00 2.44 0.00 94 1039.9
20210801143221 10 202 0.0 0.0 0.00 2.44 0.00 94 1039.9
20210801142220 10 202 0.0 0.0 0.00 2.44 0.00 94 1039.9
20210801141219 10 202 0.0 0.0 0.00 2.44 0.00 94 1039.8
20210801140220 10 202 0.0 1.6 0.00 2.44 0.00 93 1039.7
20210801135221 10 202 0.0 0.0 0.00 2.44 0.00 93 1039.6
20210801134320 10 202 0.0 0.0 0.00 2.44 0.00 93 1039.6
20210801133319 10 202 0.0 0.0 0.00 2.44 0.00 92 1039.4
20210801132322 9 202 0.0 0.0 0.00 2.44 0.00 93 1039.4
20210801131420 9 202 0.0 0.0 0.00 2.44 0.00 92 1039.4
20210801130419 9 202 1.6 1.6 0.00 2.44 0.00 92 1039.1
20210801125418 9 202 0.0 3.2 0.00 2.44 0.00 92 1039.2
20210801124422 9 202 0.0 0.0 0.00 2.44 0.00 92 1039.2
20210801123419 9 202 3.2 4.8 0.00 2.44 0.00 92 1039.2
20210801122420 8 202 0.0 0.0 0.00 2.44 0.00 92 1039.0
20210801121518 9 202 0.0 0.0 0.00 2.44 0.00 91 1039.0
20210801120520 9 202 0.0 0.0 0.00 2.44 0.00 92 1039.0
20210801115520 9 180 0.0 1.6 0.00 2.44 0.00 92 1038.9
20210801114519 9 180 1.6 4.8 0.00 2.44 0.00 91 1039.0
20210801113521 9 180 0.0 3.2 0.00 2.44 0.00 91 1039.0
20210801112519 9 202 1.6 3.2 0.00 2.44 0.00 93 1038.9
20210801111519 9 175 3.2 6.4 0.00 2.44 0.00 93 1038.8
20210801110520 9 180 1.6 3.2 0.00 2.44 0.00 95 1038.7
20210801105520 9 180 0.0 1.6 0.00 2.44 0.00 95 1038.8
20210801104519 9 202 0.0 3.2 0.00 2.44 0.00 96 1038.7
20210801103520 9 202 1.6 3.2 0.00 2.44 0.00 95 1038.8
20210801102519 9 180 0.0 0.0 0.00 2.44 0.00 95 1038.5
20210801101618 9 180 0.0 0.0 0.00 2.44 0.00 94 1038.5
20210801100620 9 180 0.0 0.0 0.00 2.44 0.00 94 1038.6
20210801095620 9 180 0.0 1.6 0.00 2.44 0.00 94 1038.7
20210801094620 9 180 1.6 3.2 0.00 2.44 0.00 95 1038.6
20210801093622 9 180 0.0 1.6 0.00 2.44 0.00 95 1038.7
20210801092719 9 180 0.0 0.0 0.00 2.44 0.00 95 1038.7
20210801091720 10 180 0.0 0.0 0.00 2.44 0.00 95 1038.7
20210801090719 9 180 0.0 0.0 0.00 2.44 0.00 95 1038.7
20210801085818 9 180 1.6 3.2 0.00 2.44 0.00 95 1038.6
20210801084822 10 157 0.0 1.6 0.00 2.44 0.00 96 1038.5
20210801083920 10 157 3.2 6.4 0.00 2.44 0.00 96 1038.6
20210801082920 10 157 0.0 1.6 0.00 2.44 0.00 96 1038.9
20210801081920 10 157 0.0 0.0 0.00 2.44 0.00 96 1038.9
20210801080918 10 157 0.0 1.6 0.00 2.44 0.00 95 1039.0
20210801075921 10 157 1.6 3.2 0.00 2.46 0.00 96 1039.1
20210801075018 10 180 0.0 0.0 0.00 2.46 0.00 96 1039.2
20210801074021 10 180 1.6 3.2 0.00 2.46 0.00 95 1039.0
20210801073021 10 180 1.6 1.6 0.00 2.46 0.00 94 1039.3
20210801072021 10 157 0.0 0.0 0.00 2.46 0.00 94 1039.4
20210801071019 10 157 0.0 0.0 0.00 2.46 0.00 95 1039.7
20210801070019 10 157 0.0 0.0 0.00 2.46 0.00 95 1039.6
20210801065020 10 157 0.0 1.6 0.00 2.46 0.00 96 1039.8
20210801064019 10 157 3.2 4.8 0.00 2.46 0.00 95 1039.9
20210801063019 10 157 3.2 4.8 0.00 2.46 0.00 95 1040.0
20210801062019 10 157 0.0 0.0 0.00 2.46 0.00 94 1040.0
20210801061019 10 157 4.8 6.4 0.00 2.46 0.00 96 1040.1
20210801060118 10 157 0.0 0.0 0.00 2.46 0.00 95 1040.1
20210801055137 10 202 3.2 3.2 0.00 2.46 2.46 95 1039.9
20210801053237 10 202 0.0 0.0 0.00 2.46 2.46 96 1039.8
20210801052236 10 202 0.0 1.6 0.00 2.49 2.46 94 1039.8
20210801051236 10 202 0.0 0.0 0.00 2.49 2.46 94 1039.8
20210801050335 10 202 0.0 1.6 0.00 2.51 2.46 94 1039.6
20210801045335 10 202 0.0 0.0 0.00 2.54 2.46 95 1039.7
20210801044337 10 202 0.0 1.6 0.00 2.59 2.46 94 1039.6
20210801044237 10 202 0.0 1.6 0.00 2.59 2.46 94 1039.6
20210801043237 10 177 3.2 4.8 0.00 2.67 2.46 94 1039.5
20210801042240 11 157 1.6 3.2 0.00 2.74 2.46 96 1039.7
20210801041335 11 157 0.0 0.0 0.00 2.84 2.46 95 1039.6
20210801040336 11 157 0.0 0.0 0.00 2.90 2.46 94 1039.8
20210801035436 11 157 0.0 0.0 0.00 2.92 2.46 95 1039.6
20210801034436 11 270 0.0 0.0 0.00 2.92 2.46 95 1039.6
20210801033437 11 270 0.0 0.0 0.03 2.92 2.46 94 1039.4
20210801032436 11 270 0.0 0.0 0.03 2.92 2.46 94 1039.3
20210801031437 11 337 0.0 0.0 0.05 2.92 2.46 93 1039.2
20210801030436 11 337 0.0 0.0 0.05 2.92 2.46 93 1039.1
20210801025436 11 337 6.4 11.3 0.05 2.92 2.46 95 1038.8
20210801024437 11 4 3.2 6.4 0.05 2.92 2.44 96 1038.7
20210801023438 11 18 1.6 6.4 0.03 2.92 2.44 96 1038.5
20210801022536 11 337 3.2 6.4 0.03 2.92 2.44 95 1038.5
20210801021635 12 337 1.6 3.2 0.00 2.90 2.41 97 1038.4
20210801020735 12 360 0.0 3.2 0.00 2.90 2.41 95 1038.3
20210801015738 11 360 0.0 0.0 0.00 2.90 2.41 95 1038.4
20210801014734 11 360 0.0 0.0 0.03 2.90 2.41 95 1038.5
20210801013736 11 360 0.0 0.0 0.03 2.90 2.41 95 1038.4
20210801012735 11 360 0.0 0.0 0.05 2.90 2.41 96 1038.4
20210801011735 11 360 0.0 0.0 0.15 2.90 2.41 96 1038.3
20210801010736 11 360 0.0 0.0 0.23 2.90 2.41 96 1038.5
20210801005735 11 360 0.0 0.0 0.38 2.90 2.41 95 1038.4
20210801004738 11 360 0.0 0.0 0.51 2.87 2.39 96 1038.3
20210801003736 11 360 0.0 0.0 0.58 2.87 2.36 96 1038.3
20210801002736 12 6 3.2 4.8 0.64 2.84 2.34 96 1038.3
20210801001737 11 22 1.6 3.2 0.58 2.74 2.26 95 1038.5
20210801000737 12 22 0.0 1.6 0.53 2.67 2.16 95 1038.4
20210731235735 12 345 0.0 3.2 0.41 2.51 2.01 95 1038.4
20210731234737 12 22 0.0 3.2 0.28 2.36 1.85 95 1038.3
20210731233835 12 180 0.0 0.0 0.20 2.29 1.80 95 1038.3
20210731232837 12 180 0.0 0.0 0.15 2.21 1.73 95 1038.4
20210731231836 12 180 0.0 0.0 0.13 2.18 1.68 95 1038.3
20210731230839 12 180 0.0 0.0 0.10 2.16 1.65 94 1038.3
20210731225935 12 180 0.0 0.0 0.10 2.16 1.65 95 1038.3
20210731224936 12 180 0.0 0.0 0.13 2.13 1.63 95 1038.3
20210731223937 12 180 0.0 0.0 0.15 2.11 1.60 94 1038.5
20210731222937 12 180 0.0 0.0 0.15 2.08 1.57 94 1038.4
20210731221936 12 180 0.0 1.6 0.13 2.06 1.55 95 1038.4
20210731220954 12 112 0.0 1.6 0.15 2.06 1.55 94 1038.5
20210731215956 12 112 0.0 0.0 0.15 2.08 1.55 93 1038.3
20210731214955 12 112 1.6 3.2 0.15 2.08 1.50 94 1038.2
20210731213957 12 22 0.0 0.0 0.13 2.13 1.45 93 1038.1
20210731213056 12 22 1.6 3.2 0.15 2.13 1.42 93 1038.2
20210731212056 12 337 0.0 1.6 0.20 2.13 1.42 94 1038.2
20210731211057 12 180 0.0 0.0 0.25 2.11 1.40 94 1038.3
20210731210155 12 180 0.0 0.0 0.36 2.11 1.40 93 1038.2
20210731205157 11 180 0.0 0.0 0.46 2.08 1.35 93 1038.1